Regional Weather Roundup
Issued by NWS

Home | Current Version | Previous Version | Text Only | Print | Product List | Glossary On
Versions: 1 2 3 4 5 6 7 8 9 10 11 12 13 14 15 16 17 18 19 20 21 22 23 24 25 26 27 28 29 30 31 32 33 34 35 36 37 38 39 40 41 42 43 44 45 46 47 48 49 50
000
ASCA42 TJSJ 232210
RWRPR
PUERTO RICO/U.S. VIRGIN ISLANDS HOURLY WEATHER ROUNDUP
NATIONAL WEATHER SERVICE SAN JUAN PR
600 PM AST MON APR 23 2018

PRZ001>002-007>008-010-232300-
PUERTO RICO

CITY           SKY/WX    TMP DP  RH WIND       PRES   REMARKS
SAN JUAN LMM   MOCLDY    79  73  83 E10       30.00S
AGUADILLA      LGT RAIN  75  72  88 SE8       30.01R
CEIBA          MOCLDY   N/A N/A N/A E9        30.03R
$$

VIZ001>002-232300-
U.S. VIRGIN ISLANDS

CITY           SKY/WX    TMP DP  RH WIND       PRES   REMARKS
CHARLOTTE AMA  HVY RAIN  81  72  74 E10       30.01R
CHRISTIANSTED  PTCLDY    81  73  78 E15       30.00S
$$

HOURLY WEATHER ROUNDUP FOR THE NEWS MEDIA

CITY           SKY/WX    TMP DP  RH WIND       PRES   REMARKS
ORLANDO        FAIR      81  69  67 E8        29.92S
NEW YORK       FAIR      51  40  65 SE10      30.45F
NEWARK         FAIR      55  37  50 SE12      30.43S
CHICAGO        CLOUDY    62  27  26 NE16      30.09F
HARTFORD       FAIR      55  25  31 S13       30.45R
BOSTON         FAIR      52  32  46 E14       30.42F
DALLAS         FAIR      76  52  43 NW13      30.00F
PHILADELPHIA   PTSUNNY   65  24  21 S14G22    30.39S
LOS ANGELES    FAIR      64  54  69 W15       29.98F
WASHINGTON DC  CLOUDY    66  43  43 S10G23    30.34R


USA.gov is the U.S. government's official web portal to all federal, state and local government web resources and services.